SL-12 R/B(AUX MOTOR), 33472

Orbit data source: Space-Track

SL-12 R/B(AUX MOTOR), 33472 is space debris in HEO originally from a launch on Thu, 25 Dec 2008 UTC launched from the Tyuratam Missile And Space Complex (TTMTR). Debris objects in space refer to the collection of defunct objects orbiting the Earth. Examples of debris include non-operational satellites, rocket bodies, and fragments generated from explosions, collisions, or faulty payload assembly.

Loading next visibility...
Identifier
33472, 2008-067G
Orbit
HEO
Last TLE update
1 day ago
Origin
Manufacturer
RKKE
Mission
Spacecraft
Bus & Motor
SOZ, Unknown motor
Mass
56 kg wet, 56 kg dry
Launch date (UTC)
2008-12-25 (17 years ago)
Launch vehicle
Unknown
Launch site
Tyuratam Missile And Space Complex (TTMTR)
Object type
Payload
Rocket body
Debris
Shape & HBR
Cyl, 1.1 m
Radar Cross Section
0.660 m², Medium (>0.1 m² and < 1m²)

Expand to show TLE details & history

TLE from 1 day ago
0 SL-12 R/B(AUX MOTOR)
1 33472U 08067G   25181.22547275  .00000089  00000-0  15661-3 0  9990
2 33472  64.9526 193.7696 5573470 295.7963  17.8090  4.39998850256379
Epoch: 2025-06-30T05:24Z
TLE epoch observation values (Epoch: 2025-06-30T05:24:40.845Z)
Latitude
-0.00015°
Longitude
-165.92572°
Altitude
2,359.327 km
Speed
8.119 km/s
True Right ascension
12h 55m 07s
True Declination
0° 00' 01"
Sunlit
Object was in daylight at epoch
Visualization orbit readout
Latitude
64.89903°
Longitude
-81.16695°
Altitude
15,029.769 km
Speed
3.453 km/s
Apparent Right ascension
16h 26m 48s
Apparent Declination
66° 17' 06"
Sunlit
Object is in daylight
Visualization observer readout
Local Sidereal Time
21:39:31
Azimuth
328.774° NNW
Elevation
40.593°
Doppler factor
1
Orbital elements
Apogee altitude
18,119.372 km
Perigee altitude
584.92 km
Semi-major axis
15,730.283 km
Eccentricity
0.55735
Inclination
64.9526°
RAAN
193.7696°
Arg. of periapsis
295.7963°
True anomaly
Unknown
Mean anomaly
17.809°
Eccentric anomaly
Unknown
Mean motion
1.10012 °/min
Orbital period
327.24 mins
BSTAR
0.00015661
Loading maneuver chart data...
Loading SW <> Apogee altitude chart data...
Loading historical data...
Loading historical data...
Loading historical data...
Loading historical data...
Loading historical data...
Loading historical data...
Loading historical data...

SL-12 R/B(AUX MOTOR) Visibility forecast

Observer location: undefined°, undefined°

Span
Click to sort rows by Start time (UTC) header in descending order
Start Az.
Max El. time (UTC)
Max El. Az.
Max El.
End time (UTC)
End Az.
195 mins2025-07-01 10:01:08.250Z328.75° NNW2025-07-01 11:58:08.250Z263.633° W44.934°2025-07-01 13:16:08.250Z174.596° S
102 mins2025-07-01 15:47:08.250Z333.401° NNW2025-07-01 16:36:08.250Z317.726° NNW15.508°2025-07-01 17:29:08.250Z299.03° NW
142 mins2025-07-02 01:06:08.250Z170.32° S2025-07-02 01:24:08.250Z92.587° ESE41.635°2025-07-02 03:28:08.250Z37.809° NE
190 mins2025-07-02 06:51:08.250Z288.991° WNW2025-07-02 09:19:08.250Z55.439° ENE41.715°2025-07-02 10:01:08.250Z95° ESE
|